{"data":{"norad_id":68441,"intl_designator":"2026-067AB","name":"HAWK-14C","alt_names":[],"object_type":"PAYLOAD","status":"ACTIVE","operator":null,"country":"US","launch_date":"2026-03-30","launch_site_code":"AFWTR","launch_vehicle":null,"mission":null,"orbit_class":"UNKNOWN","rcs_meters":null,"size_class":null,"mass_kg":null,"dimensions":null,"purposes":[],"wikipedia_slug":null,"has_3d_model":false,"image_url":null,"decayed_at":null,"tle_current":{"epoch":"2026-05-25T03:30:06.375168Z","epoch_age_seconds":61879,"freshness":"FRESH","line1":"1 68441U 26067AB  26145.14590712  .00003873  00000+0  19381-3 0  9996","line2":"2 68441  97.4469 103.8535 0003815 128.9091 231.2484 15.17996171  8443","mean_motion":15.17996171,"eccentricity":0.0003815,"inclination_deg":97.4469,"raan_deg":103.8535,"arg_perigee_deg":128.9091,"mean_anomaly_deg":231.2484,"bstar":0.00019381,"rev_number":844,"period_min":94.861899358506,"perigee_km":509.26885774742,"apogee_km":514.5259539991,"semimajor_km":6890.0344058733,"source":"CELESTRAK","updated_at":"2026-05-25T13:38:07.838310Z"}}}